Regional Weather Roundup
Issued by NWS

Home | Current Version | Previous Version | Text Only | Print | Product List | Glossary On
Versions: 1 2 3 4 5 6 7 8 9 10 11 12 13 14 15 16 17 18 19 20 21 22 23 24 25 26 27 28 29 30 31 32 33 34 35 36 37 38 39 40 41 42 43 44 45 46 47 48 49 50
000
ASUS45 KSLC 271510
RWRUT

UTAH REGIONAL WEATHER ROUNDUP
NATIONAL WEATHER SERVICE SALT LAKE CITY UT
900 AM MDT THU JUL 27 2017

UTZ001>011-023>025-271600-

NORTHERN UTAH

CITY           SKY/WX    TMP DP  RH WIND       PRES   REMARKS
BRIGHAM CITY   MOSUNNY   69  54  58 CALM      30.22R
HILL AFB       MOSUNNY   69  56  63 E13       30.23R
LOGAN          MOSUNNY   69  57  65 CALM      30.21S
OGDEN          MOSUNNY   73  55  53 CALM      30.20S
SALT LAKE CITY MOSUNNY   74  60  61 S7        30.19R
TOOELE VALLEY  MOSUNNY   75  54  46 CALM      30.19S
WENDOVER       SUNNY     72  55  55 NE6       30.20R
HEBER CITY     SUNNY     63  52  67 CALM      30.29S
WEST JORDAN    MOSUNNY   71  65  82 SE5       30.22S

$$

UTZ011>015-024>027-271600-

CENTRAL/NORTHEAST UTAH

CITY           SKY/WX    TMP DP  RH WIND       PRES   REMARKS
PROVO AIRPORT  SUNNY     70  58  65 NE3       30.23R
MOAB/CANYONLAN SUNNY     78  61  55 SE5       30.16S
DELTA          SUNNY     70  52  52 SW6       30.23R
PRICE          SUNNY     73  58  59 S5        30.28R
RICHFIELD      SUNNY     66  59  77 CALM      30.30S
ROOSEVELT      SUNNY     72  57  60 E3        30.27R
VERNAL         SUNNY     73  57  57 VRB3      30.25R

$$

UTZ013>016-019>022-027-271600-

SOUTHERN UTAH

CITY           SKY/WX    TMP DP  RH WIND       PRES   REMARKS
BRYCE CANYON   SUNNY     64  52  64 N5        30.41S
CEDAR CITY     SUNNY     68  59  73 NW6       30.27S
MILFORD        SUNNY     69  53  56 CALM      30.24S
ST GEORGE      SUNNY     80  64  58 CALM      30.09S
HANKSVILLE     SUNNY     75  57  53 CALM      30.20S
KANAB          SUNNY     75  57  53 N2        30.26S
BLANDING       SUNNY     76  52  43 CALM      30.33S

$$

REGIONAL REPORTS     COLORADO/ARIZONA

CITY           SKY/WX    TMP DP  RH WIND       PRES   REMARKS
CRAIG, CO      SUNNY     65  57  75 CALM      30.33S
GRAND JUNCTION SUNNY     75  59  57 S5        30.20S
RIFLE, CO      SUNNY     70  59  68 N3        30.27S
MONTROSE, CO   SUNNY     72  56  57 CALM      30.28F
CORTEZ, CO     SUNNY     73  56  54 MISG      30.27R
COLORADO CITY    N/A     73  64  73 CALM      30.24S
PAGE, AZ       SUNNY     81  58  45 N3        30.15S
GRAND CANYON   SUNNY     72  59  63 CALM      30.35S
KINGMAN, AZ    SUNNY     83  59  44 CALM      30.10S
FLAGSTAFF, AZ  CLOUDY    68  59  73 CALM      30.37R

$$

REGIONAL REPORTS    NEVADA/IDAHO/WYOMING

CITY           SKY/WX    TMP DP  RH WIND       PRES   REMARKS
LAS VEGAS, NV  MOSUNNY   88  63  43 E6        30.01R
ELY, NY          N/A    N/A N/A N/A MISG      30.32S
ELKO, NV       MOSUNNY   65  50  58 CALM      30.25S
POCATELLO, ID  CLOUDY    67  55  65 SW3       30.23R
BURLEY, ID     PTSUNNY   66  58  75 CALM      30.19R
FORT BRIDGER,    N/A     66  51  57 W7        30.38S
EVANSTON, WY   SUNNY     62  52  69 SW7       30.37R
ROCK SPRINGS,  SUNNY     67  51  56 W7        30.35R
KEMMERER, WY     N/A     63  50  63 N7        30.38S

$$



USA.gov is the U.S. government's official web portal to all federal, state and local government web resources and services.